Philip, SD

12:27 AM MDT on April 25, 2017 (GMT -0600)
Philip

Weather History for KPHP - October, 2010

Change the Weather History Date:

Monday, October 4, 2010

  Actual Average Record
Temperature  
Mean Temperature 66 °F 54 °F  
Max Temperature 89 °F 69 °F 96 °F (2011)
Min Temperature 43 °F 39 °F 21 °F (1999)
Degree Days  
Heating Degree Days 0 12  
Month to date heating degree days 27 44  
Since 1 July heating degree days 156 230  
Cooling Degree Days 1 0  
Month to date cooling degree days 1 0  
Year to date cooling degree days 833 814  
Growing Degree Days 16 (Base 50)    
Moisture  
Dew Point 44 °F    
Average Humidity 53    
Maximum Humidity 83    
Minimum Humidity 22    
Precipitation  
Precipitation 0.00 in 0.06 in 1.56 in (1998)
Month to date precipitation 0.00 0.22  
Year to date precipitation 13.96 15.09  
Sea Level Pressure  
Sea Level Pressure 29.90 in    
Wind  
Wind Speed 12 mph (SSE)    
Max Wind Speed 25 mph    
Max Gust Speed 30 mph    
Visibility 10 miles    
Events      
T = Trace of Precipitation, MM = Missing Value Source: NWS Daily Summary

Daily Weather History Graph

Daily Weather History Graph

Search for Another Location

Airport or City:

Trip Planner

Search our weather history database for the weather conditions in past years. The results will help you decide how hot, cold, wet, or windy it might be!

Date:

Astronomy

Oct. 04, 2010 Rise Set
Actual Time 6:47 AM MDT 6:21 PM MDT
Civil Twilight 6:18 AM MDT 6:50 PM MDT
Nautical Twilight 5:45 AM MDT 7:23 PM MDT
Astronomical Twilight 5:11 AM MDT 7:57 PM MDT
Moon 2:51 AM MDT (10/4) 4:27 PM MDT (10/4)
Length of Visible Light 12h 31m
Length of Day
11h 34m
Waning Crescent, 13% of the Moon is Illuminated
Oct 4
Waning Crescent
Oct 7
New
Oct 14
First Quarter
Oct 22
Full
Oct 30
Last Quarter

Hourly Weather History & Observations

Time (MDT) Temp. Windchill Dew Point Humidity Pressure Visibility Wind Dir Wind Speed Gust Speed Precip Events Conditions
12:55 AM 54.0 °F - 37.9 °F 55% 29.99 in 10.0 mi South 4.6 mph - N/A   Clear
1:55 AM 54.0 °F - 39.0 °F 57% 29.99 in 10.0 mi SSE 4.6 mph - N/A   Clear
2:55 AM 50.0 °F - 39.0 °F 66% 29.98 in 10.0 mi SE 4.6 mph - N/A   Clear
3:55 AM 52.0 °F - 39.0 °F 61% 29.96 in 10.0 mi SSE 9.2 mph - N/A   Clear
4:55 AM 50.0 °F - 39.9 °F 68% 29.96 in 10.0 mi SSE 5.8 mph - N/A   Clear
5:55 AM 48.0 °F - 39.0 °F 71% 29.96 in 10.0 mi East 5.8 mph - N/A   Clear
6:55 AM 45.0 °F 41.8 °F 39.0 °F 80% 29.96 in 10.0 mi East 5.8 mph - N/A   Clear
7:55 AM 50.0 °F - 41.0 °F 71% 29.97 in 10.0 mi ESE 3.5 mph - N/A   Clear
8:55 AM 57.9 °F - 43.0 °F 58% 29.96 in 10.0 mi South 16.1 mph - N/A   Clear
9:55 AM 62.1 °F - 43.0 °F 50% 29.95 in 10.0 mi SSE 12.7 mph - N/A   Clear
10:55 AM 68.0 °F - 45.0 °F 43% 29.94 in 10.0 mi South 13.8 mph - N/A   Clear
11:55 AM 73.9 °F - 46.9 °F 38% 29.90 in 10.0 mi SSE 13.8 mph 20.7 mph N/A   Clear
12:55 PM 80.1 °F - 46.9 °F 31% 29.86 in 10.0 mi South 20.7 mph 26.5 mph N/A   Clear
1:55 PM 84.0 °F - 46.9 °F 27% 29.83 in 10.0 mi South 18.4 mph 26.5 mph N/A   Clear
2:55 PM 87.1 °F - 45.0 °F 23% 29.80 in 10.0 mi South 23.0 mph 28.8 mph N/A   Clear
3:55 PM 87.1 °F - 45.0 °F 23% 29.78 in 10.0 mi South 21.9 mph 27.6 mph N/A   Clear
4:55 PM 84.9 °F - 46.0 °F 26% 29.79 in 10.0 mi SSE 17.3 mph 28.8 mph N/A   Clear
5:55 PM 80.1 °F - 46.9 °F 31% 29.81 in 10.0 mi SSE 17.3 mph 25.3 mph N/A   Clear
6:55 PM 75.9 °F - 46.9 °F 36% 29.83 in 10.0 mi SSE 15.0 mph - N/A   Clear
7:55 PM 72.0 °F - 48.0 °F 43% 29.86 in 10.0 mi ESE 4.6 mph - N/A   Clear
8:55 PM 69.1 °F - 46.9 °F 45% 29.88 in 10.0 mi SSE 9.2 mph - N/A   Clear
9:55 PM 72.0 °F - 46.9 °F 41% 29.85 in 10.0 mi South 20.7 mph 28.8 mph N/A   Clear
10:55 PM 70.0 °F - 46.9 °F 44% 29.86 in 10.0 mi SSW 17.3 mph 25.3 mph N/A   Clear
11:55 PM 68.0 °F - 46.9 °F 47% 29.86 in 10.0 mi SSW 9.2 mph - N/A   Clear